CFG7KH EDDH-LGRP

Flight info

Callsign CFG7KH
Flight time 1h 37m
Altitude 35000
Route AMLUH2D AMLUH M852 DENIX DCT ZUCKA DCT OMELO DCT PEPIK DCT KEROP DCT NISVA DCT NIKTI DCT MES UN139 LURUS UL995 CODIC
Aircraft A320/M-SDE3FGHIRWY/LB1

Departure

Time 2026-05-01 08:26
Airport Hamburg Helmut Schmidt Airport (EDDH)

Arrival

Time 2026-05-01 10:03
Airport Rhodes International Airport "Diagoras" (LGRP)
Time Latitude Longitude Altitude Speed Heading
2026-05-01 07:47 53.63373 10.00344 47 ft 0 kts 86°
2026-05-01 08:18 53.63372 10.00313 45 ft 4 kts 86°
2026-05-01 08:19 53.63377 10.00238 45 ft 4 kts 140°
2026-05-01 08:19 53.63393 10.00225 46 ft 0 kts 175°
2026-05-01 08:22 53.63390 10.00225 46 ft 3 kts 180°
2026-05-01 08:23 53.63357 10.00192 47 ft 5 kts 216°
2026-05-01 08:23 53.63310 10.00166 48 ft 14 kts 179°
2026-05-01 08:23 53.63200 10.00181 48 ft 17 kts 175°
2026-05-01 08:23 53.63081 10.00188 48 ft 18 kts 193°
2026-05-01 08:24 53.62975 10.00079 46 ft 19 kts 214°
2026-05-01 08:24 53.62894 9.99906 47 ft 20 kts 242°
2026-05-01 08:24 53.62890 9.99727 43 ft 11 kts 321°
2026-05-01 08:24 53.62908 9.99710 45 ft 0 kts 333°
2026-05-01 08:25 53.62919 9.99701 45 ft 12 kts 333°
2026-05-01 08:25 53.63241 9.99421 47 ft 87 kts 333°
2026-05-01 08:25 53.63967 9.98795 51 ft 145 kts 333°
2026-05-01 08:25 53.64983 9.97907 237 ft 172 kts 333°
2026-05-01 08:26 53.66051 9.96993 912 ft 172 kts 333°
2026-05-01 08:26 53.67121 9.96080 1593 ft 173 kts 332°
2026-05-01 08:26 53.68215 9.95143 2057 ft 185 kts 334°
2026-05-01 08:26 53.69537 9.94634 2322 ft 208 kts
2026-05-01 08:27 53.71051 9.94658 2705 ft 224 kts
2026-05-01 08:27 53.72564 9.95198 3393 ft 225 kts 33°
2026-05-01 08:27 53.73592 9.97105 4125 ft 222 kts 70°
2026-05-01 08:27 53.73947 9.99619 4912 ft 220 kts 82°
2026-05-01 08:28 53.74142 10.02181 5646 ft 220 kts 94°
2026-05-01 08:28 53.73832 10.04730 6180 ft 231 kts 115°
2026-05-01 08:28 53.73027 10.07224 6502 ft 254 kts 120°
2026-05-01 08:28 53.72127 10.09874 7083 ft 264 kts 120°
2026-05-01 08:29 53.71208 10.12591 7835 ft 268 kts 120°
2026-05-01 08:29 53.70284 10.15336 8612 ft 271 kts 119°
2026-05-01 08:29 53.69297 10.18060 9414 ft 274 kts 128°
2026-05-01 08:29 53.67903 10.20270 10191 ft 279 kts 145°
2026-05-01 08:30 53.66134 10.21652 10860 ft 287 kts 161°
2026-05-01 08:30 53.64131 10.22614 11045 ft 311 kts 162°
2026-05-01 08:30 53.61966 10.23609 11203 ft 334 kts 163°
2026-05-01 08:30 53.59651 10.24655 11378 ft 353 kts 163°
2026-05-01 08:31 53.57249 10.25732 11910 ft 360 kts 163°
2026-05-01 08:31 53.54815 10.26822 12545 ft 364 kts 163°
2026-05-01 08:31 53.52359 10.27928 13189 ft 367 kts 162°
2026-05-01 08:31 53.49878 10.29052 13834 ft 370 kts 162°
2026-05-01 08:32 53.47416 10.30176 14436 ft 373 kts 162°
2026-05-01 08:32 53.44899 10.31327 14990 ft 377 kts 162°
2026-05-01 08:32 53.42357 10.32487 15540 ft 380 kts 163°
2026-05-01 08:32 53.39793 10.33652 16089 ft 384 kts 163°
2026-05-01 08:33 53.37202 10.34821 16606 ft 388 kts 163°
2026-05-01 08:33 53.34579 10.36002 17143 ft 392 kts 163°
2026-05-01 08:33 53.31938 10.37188 17670 ft 395 kts 163°
2026-05-01 08:33 53.29269 10.38382 18201 ft 399 kts 163°
2026-05-01 08:34 53.26574 10.39584 18723 ft 403 kts 163°
2026-05-01 08:34 53.23856 10.40798 19182 ft 406 kts 163°
2026-05-01 08:34 53.21121 10.42016 19648 ft 409 kts 163°
2026-05-01 08:34 53.18363 10.43244 20102 ft 411 kts 163°
2026-05-01 08:35 53.15587 10.44483 20538 ft 414 kts 163°
2026-05-01 08:35 53.12793 10.45720 20980 ft 417 kts 164°
2026-05-01 08:35 53.09954 10.46816 21390 ft 420 kts 166°
2026-05-01 08:35 53.07073 10.47756 21799 ft 423 kts 168°
2026-05-01 08:36 53.04163 10.48607 22190 ft 426 kts 169°
2026-05-01 08:36 53.01227 10.49435 22588 ft 429 kts 169°
2026-05-01 08:36 52.98278 10.50273 22976 ft 431 kts 169°
2026-05-01 08:36 52.95314 10.51142 23350 ft 434 kts 168°
2026-05-01 08:37 52.92338 10.52042 23700 ft 436 kts 168°
2026-05-01 08:37 52.89345 10.52969 24048 ft 439 kts 168°
2026-05-01 08:37 52.86337 10.53912 24347 ft 441 kts 168°
2026-05-01 08:37 52.83320 10.54858 24663 ft 442 kts 168°
2026-05-01 08:38 52.80288 10.55803 24959 ft 444 kts 168°
2026-05-01 08:38 52.77243 10.56745 25265 ft 446 kts 168°
2026-05-01 08:38 52.74227 10.57673 25522 ft 448 kts 168°
2026-05-01 08:38 52.71156 10.58614 25790 ft 450 kts 168°
2026-05-01 08:39 52.68073 10.59555 26069 ft 452 kts 168°
2026-05-01 08:39 52.64929 10.60511 26336 ft 454 kts 168°
2026-05-01 08:39 52.61860 10.61443 26592 ft 455 kts 168°
2026-05-01 08:39 52.58741 10.62395 26848 ft 457 kts 168°
2026-05-01 08:40 52.52470 10.64310 27345 ft 460 kts 168°
2026-05-01 08:40 52.49315 10.65269 27559 ft 462 kts 168°
2026-05-01 08:40 52.46149 10.66225 27772 ft 464 kts 168°
2026-05-01 08:41 52.42969 10.67182 27984 ft 465 kts 168°
2026-05-01 08:41 52.39788 10.68139 28231 ft 466 kts 168°
2026-05-01 08:41 52.36604 10.69101 28537 ft 465 kts 168°
2026-05-01 08:41 52.33424 10.70061 28839 ft 464 kts 168°
2026-05-01 08:42 52.30254 10.71019 29141 ft 463 kts 168°
2026-05-01 08:42 52.27091 10.71970 29444 ft 462 kts 168°
2026-05-01 08:42 52.23927 10.72922 29726 ft 462 kts 168°
2026-05-01 08:42 52.20766 10.73871 30020 ft 462 kts 168°
2026-05-01 08:43 52.17610 10.74816 30326 ft 461 kts 168°
2026-05-01 08:43 52.14459 10.75753 30613 ft 460 kts 168°
2026-05-01 08:43 52.11308 10.76687 30861 ft 460 kts 168°
2026-05-01 08:43 52.08161 10.77622 31103 ft 459 kts 168°
2026-05-01 08:44 52.05019 10.78558 31340 ft 459 kts 168°
2026-05-01 08:44 52.01878 10.79496 31579 ft 459 kts 168°
2026-05-01 08:44 51.98733 10.80436 31798 ft 460 kts 168°
2026-05-01 08:44 51.95586 10.81373 32032 ft 460 kts 168°
2026-05-01 08:45 51.92439 10.82303 32261 ft 460 kts 168°
2026-05-01 08:45 51.89289 10.83231 32505 ft 460 kts 168°
2026-05-01 08:45 51.86142 10.84157 32756 ft 459 kts 169°
2026-05-01 08:45 51.84062 10.84767 32920 ft 459 kts 169°
2026-05-01 08:46 51.80918 10.85683 33170 ft 459 kts 169°
2026-05-01 08:46 51.77778 10.86599 33429 ft 458 kts 169°
2026-05-01 08:46 51.74666 10.87687 33669 ft 457 kts 161°
2026-05-01 08:46 51.71729 10.89600 33889 ft 455 kts 150°
2026-05-01 08:47 51.69077 10.92367 34117 ft 453 kts 139°
2026-05-01 08:47 51.66805 10.95862 34336 ft 451 kts 129°
2026-05-01 08:47 51.64972 10.99939 34558 ft 449 kts 118°
2026-05-01 08:47 51.63622 11.04451 34746 ft 447 kts 110°
2026-05-01 08:48 51.62454 11.09094 34936 ft 447 kts 110°
2026-05-01 08:48 51.61285 11.13732 35143 ft 447 kts 110°
2026-05-01 08:48 51.60115 11.18360 35342 ft 447 kts 110°
2026-05-01 08:48 51.58940 11.22988 35432 ft 448 kts 110°
2026-05-01 08:49 51.56564 11.32273 35449 ft 449 kts 110°
2026-05-01 08:49 51.54173 11.41542 35449 ft 449 kts 110°
2026-05-01 08:50 51.51776 11.50821 35450 ft 450 kts 111°
2026-05-01 08:50 51.49393 11.60025 35452 ft 450 kts 111°
2026-05-01 08:51 51.47007 11.69205 35450 ft 450 kts 110°
2026-05-01 08:51 51.44623 11.78366 35451 ft 450 kts 110°
2026-05-01 08:52 51.42202 11.87616 35456 ft 450 kts 110°
2026-05-01 08:52 51.39766 11.96852 35456 ft 450 kts 110°
2026-05-01 08:53 51.37331 12.06090 35469 ft 450 kts 110°
2026-05-01 08:53 51.34892 12.15310 35466 ft 450 kts 110°
2026-05-01 08:54 51.32441 12.24508 35458 ft 449 kts 110°
2026-05-01 08:54 51.29984 12.33696 35456 ft 449 kts 110°
2026-05-01 08:55 51.27520 12.42867 35459 ft 450 kts 110°
2026-05-01 08:55 51.25047 12.52044 35475 ft 449 kts 110°
2026-05-01 08:56 51.22592 12.61134 35472 ft 449 kts 110°
2026-05-01 08:56 51.20113 12.70278 35471 ft 449 kts 110°
2026-05-01 08:57 51.17621 12.79404 35470 ft 449 kts 110°
2026-05-01 08:57 51.15125 12.88524 35468 ft 449 kts 110°
2026-05-01 08:58 51.12620 12.97637 35482 ft 449 kts 110°
2026-05-01 08:58 51.10114 13.06724 35475 ft 448 kts 110°
2026-05-01 08:59 51.07603 13.15792 35472 ft 448 kts 110°
2026-05-01 08:59 51.05087 13.24832 35462 ft 447 kts 110°
2026-05-01 09:00 51.02566 13.33872 35457 ft 447 kts 110°
2026-05-01 09:00 51.00038 13.42880 35470 ft 446 kts 110°
2026-05-01 09:01 50.97509 13.51872 35466 ft 446 kts 110°
2026-05-01 09:01 50.94980 13.60837 35461 ft 445 kts 110°
2026-05-01 09:02 50.92443 13.69790 35456 ft 445 kts 110°
2026-05-01 09:02 50.89899 13.78725 35455 ft 445 kts 110°
2026-05-01 09:03 50.87369 13.87577 35448 ft 445 kts 110°
2026-05-01 09:03 50.84774 13.96473 35441 ft 447 kts 114°
2026-05-01 09:04 50.81068 14.04441 35437 ft 456 kts 131°
2026-05-01 09:04 50.72516 14.17997 35451 ft 456 kts 130°
2026-05-01 09:05 50.59199 14.38988 35441 ft 456 kts 130°
2026-05-01 09:05 50.41360 14.66849 35454 ft 456 kts 130°
2026-05-01 09:06 50.23391 14.94603 35452 ft 455 kts 130°
2026-05-01 09:06 50.05345 15.22152 35427 ft 455 kts 130°
2026-05-01 09:07 49.87284 15.49438 35420 ft 456 kts 130°
2026-05-01 09:07 49.69174 15.76473 35428 ft 455 kts 130°
2026-05-01 09:08 49.51322 16.02851 35427 ft 454 kts 129°
2026-05-01 09:08 49.32971 16.29652 35427 ft 454 kts 129°
2026-05-01 09:09 49.14674 16.56118 35427 ft 453 kts 129°
2026-05-01 09:09 48.96327 16.82361 35387 ft 452 kts 129°
2026-05-01 09:10 48.77898 17.08318 35407 ft 457 kts 134°
2026-05-01 09:10 48.56978 17.30633 35407 ft 460 kts 137°
2026-05-01 09:11 48.35999 17.52745 35342 ft 460 kts 137°
2026-05-01 09:11 48.18950 17.70550 35328 ft 459 kts 137°
2026-05-01 09:12 48.05052 17.84971 35426 ft 457 kts 136°
2026-05-01 09:12 47.92606 17.97806 35394 ft 460 kts 137°
2026-05-01 09:13 47.82072 18.08579 35380 ft 457 kts 136°
2026-05-01 09:13 47.71612 18.19259 35376 ft 456 kts 136°
2026-05-01 09:14 47.57840 18.33205 35428 ft 456 kts 136°
2026-05-01 09:14 47.37034 18.54148 35397 ft 456 kts 136°
2026-05-01 09:15 47.16045 18.75050 35406 ft 455 kts 137°
2026-05-01 09:15 46.95010 18.95808 35396 ft 456 kts 137°
2026-05-01 09:16 46.73917 19.16391 35381 ft 457 kts 138°
2026-05-01 09:17 46.42015 19.47189 35358 ft 461 kts 140°
2026-05-01 09:17 46.10001 19.78229 35361 ft 462 kts 138°
2026-05-01 09:18 45.78479 20.10636 35377 ft 464 kts 140°
2026-05-01 09:19 45.46778 20.42645 35367 ft 466 kts 140°
2026-05-01 09:20 45.14861 20.74379 35347 ft 468 kts 141°
2026-05-01 09:21 44.71940 21.16397 35348 ft 470 kts 143°
2026-05-01 09:21 44.39728 21.47406 35355 ft 470 kts 144°
2026-05-01 09:22 43.96454 21.88424 35334 ft 471 kts 145°
2026-05-01 09:23 43.63756 22.18944 35342 ft 473 kts 145°
2026-05-01 09:24 43.30900 22.49194 35313 ft 474 kts 146°
2026-05-01 09:25 42.86995 22.89490 35297 ft 476 kts 145°
2026-05-01 09:26 42.54296 23.20430 35278 ft 478 kts 147°
2026-05-01 09:26 42.21396 23.51109 35283 ft 479 kts 148°
2026-05-01 09:27 41.88394 23.81488 35282 ft 479 kts 148°
2026-05-01 09:28 41.66309 24.01605 35282 ft 481 kts 149°
2026-05-01 09:28 41.43121 24.18689 35124 ft 477 kts 161°
2026-05-01 09:29 41.33843 24.23998 35250 ft 477 kts 161°
2026-05-01 09:30 41.24686 24.29186 35251 ft 476 kts 161°
2026-05-01 09:30 41.15538 24.34344 35235 ft 476 kts 161°
2026-05-01 09:31 41.02474 24.41689 35222 ft 476 kts 162°
2026-05-01 09:32 40.65850 24.62101 35230 ft 477 kts 162°
2026-05-01 09:32 40.28967 24.82420 35252 ft 480 kts 163°
2026-05-01 09:33 40.04475 24.95804 35214 ft 480 kts 163°
2026-05-01 09:34 39.67451 25.15799 35193 ft 480 kts 165°
2026-05-01 09:34 39.30351 25.35617 35145 ft 481 kts 165°
2026-05-01 09:35 38.93196 25.55225 35129 ft 482 kts 166°
2026-05-01 09:36 38.72375 25.66124 35098 ft 483 kts 166°
2026-05-01 09:36 38.47472 25.79053 35098 ft 484 kts 166°
2026-05-01 09:37 38.22440 25.91942 35084 ft 486 kts 167°
2026-05-01 09:37 37.84055 26.09278 35050 ft 491 kts 169°
2026-05-01 09:38 37.45366 26.26664 35070 ft 492 kts 169°
2026-05-01 09:39 37.06599 26.43877 35024 ft 494 kts 169°
2026-05-01 09:39 36.93731 26.50048 34979 ft 509 kts 157°
2026-05-01 09:39 36.84679 26.64075 34826 ft 539 kts 113°
2026-05-01 09:40 36.81796 26.72727 35124 ft 536 kts 115°
2026-05-01 09:40 36.78816 26.81238 34989 ft 535 kts 116°
2026-05-01 09:41 36.75823 26.89740 34975 ft 536 kts 115°
2026-05-01 09:41 36.72863 26.98283 34815 ft 539 kts 115°
2026-05-01 09:41 36.71376 27.02591 34092 ft 541 kts 115°
2026-05-01 09:42 36.69887 27.06893 33293 ft 540 kts 115°
2026-05-01 09:42 36.68394 27.11181 32508 ft 540 kts 115°
2026-05-01 09:42 36.65397 27.19746 31006 ft 538 kts 115°
2026-05-01 09:43 36.62416 27.28262 29457 ft 535 kts 116°
2026-05-01 09:43 36.60932 27.32501 28626 ft 533 kts 116°
2026-05-01 09:43 36.59448 27.36722 27809 ft 532 kts 116°
2026-05-01 09:44 36.56484 27.45109 25992 ft 528 kts 116°
2026-05-01 09:44 36.55013 27.49271 24998 ft 523 kts 116°
2026-05-01 09:44 36.53555 27.53391 24057 ft 517 kts 116°
2026-05-01 09:45 36.52115 27.57453 23062 ft 512 kts 116°
2026-05-01 09:45 36.49344 27.65522 20959 ft 505 kts 110°
2026-05-01 09:45 36.48670 27.69800 19979 ft 504 kts 96°
2026-05-01 09:46 36.48377 27.74105 19192 ft 497 kts 95°
2026-05-01 09:46 36.48354 27.78369 18428 ft 491 kts 83°
2026-05-01 09:46 36.49037 27.82489 17590 ft 485 kts 76°
2026-05-01 09:46 36.49834 27.86530 16747 ft 479 kts 75°
2026-05-01 09:47 36.50785 27.90469 15967 ft 473 kts 67°
2026-05-01 09:47 36.52039 27.94217 15205 ft 467 kts 65°
2026-05-01 09:47 36.53295 27.97922 14466 ft 462 kts 65°
2026-05-01 09:47 36.54534 28.01587 13746 ft 458 kts 65°
2026-05-01 09:48 36.55760 28.05221 12991 ft 453 kts 65°
2026-05-01 09:48 36.56956 28.08755 12271 ft 447 kts 65°
2026-05-01 09:48 36.58160 28.12286 11568 ft 441 kts 65°
2026-05-01 09:48 36.59352 28.15779 10866 ft 435 kts 65°
2026-05-01 09:49 36.60521 28.19203 10407 ft 419 kts 65°
2026-05-01 09:49 36.61609 28.22399 10160 ft 385 kts 65°
2026-05-01 09:49 36.62605 28.25346 9984 ft 355 kts 65°
2026-05-01 09:49 36.63517 28.28059 9973 ft 326 kts 65°
2026-05-01 09:50 36.64377 28.30630 9982 ft 319 kts 65°
2026-05-01 09:50 36.65222 28.33169 9802 ft 316 kts 65°
2026-05-01 09:50 36.66059 28.35688 9534 ft 314 kts 65°
2026-05-01 09:50 36.66893 28.38189 9273 ft 310 kts 65°
2026-05-01 09:51 36.67715 28.40643 9026 ft 304 kts 65°
2026-05-01 09:51 36.68525 28.43042 8761 ft 297 kts 65°
2026-05-01 09:51 36.69320 28.45387 8505 ft 291 kts 65°
2026-05-01 09:51 36.70097 28.47688 8256 ft 285 kts 67°
2026-05-01 09:52 36.70498 28.50061 8042 ft 277 kts 91°
2026-05-01 09:52 36.70174 28.52340 7964 ft 261 kts 114°
2026-05-01 09:52 36.69259 28.54231 7832 ft 253 kts 136°
2026-05-01 09:52 36.67910 28.55552 7582 ft 244 kts 158°
2026-05-01 09:53 36.66334 28.56191 7345 ft 235 kts 178°
2026-05-01 09:53 36.64715 28.56149 7088 ft 234 kts 196°
2026-05-01 09:53 36.63183 28.55442 6812 ft 237 kts 215°
2026-05-01 09:53 36.61913 28.54127 6563 ft 240 kts 234°
2026-05-01 09:54 36.60883 28.52503 6502 ft 239 kts 234°
2026-05-01 09:54 36.59849 28.50894 6252 ft 236 kts 234°
2026-05-01 09:54 36.58828 28.49319 5970 ft 232 kts 234°
2026-05-01 09:54 36.57823 28.47775 5682 ft 228 kts 234°
2026-05-01 09:55 36.56833 28.46255 5409 ft 224 kts 234°
2026-05-01 09:55 36.55863 28.44760 5133 ft 221 kts 234°
2026-05-01 09:55 36.54909 28.43286 4860 ft 217 kts 234°
2026-05-01 09:55 36.53970 28.41835 4576 ft 214 kts 233°
2026-05-01 09:56 36.53042 28.40402 4294 ft 211 kts 233°
2026-05-01 09:56 36.52127 28.38992 4016 ft 209 kts 233°
2026-05-01 09:56 36.51230 28.37612 3752 ft 207 kts 233°
2026-05-01 09:56 36.50330 28.36223 3463 ft 205 kts 234°
2026-05-01 09:57 36.49424 28.34829 3190 ft 204 kts 234°
2026-05-01 09:57 36.48546 28.33481 2914 ft 203 kts 233°
2026-05-01 09:57 36.47662 28.32122 2644 ft 202 kts 233°
2026-05-01 09:57 36.46961 28.30639 2364 ft 198 kts 250°
2026-05-01 09:58 36.46485 28.29045 2096 ft 194 kts 252°
2026-05-01 09:58 36.46056 28.27563 2015 ft 170 kts 253°
2026-05-01 09:58 36.45681 28.26269 1982 ft 150 kts 252°
2026-05-01 09:58 36.45338 28.25089 1987 ft 142 kts 253°
2026-05-01 09:59 36.45008 28.23951 1994 ft 137 kts 252°
2026-05-01 09:59 36.44686 28.22844 1983 ft 136 kts 252°
2026-05-01 09:59 36.44365 28.21739 1865 ft 135 kts 252°
2026-05-01 09:59 36.44049 28.20654 1722 ft 134 kts 253°
2026-05-01 10:00 36.43728 28.19554 1595 ft 136 kts 252°
2026-05-01 10:00 36.43409 28.18469 1446 ft 132 kts 253°
2026-05-01 10:00 36.43091 28.17388 1213 ft 135 kts 252°
2026-05-01 10:00 36.42776 28.16284 991 ft 135 kts 253°
2026-05-01 10:01 36.42459 28.15202 871 ft 131 kts 251°
2026-05-01 10:01 36.42117 28.14163 726 ft 130 kts 251°
2026-05-01 10:01 36.41808 28.13084 565 ft 135 kts 255°
2026-05-01 10:01 36.41512 28.11965 367 ft 136 kts 253°
2026-05-01 10:02 36.41194 28.10892 175 ft 128 kts 252°
2026-05-01 10:02 36.40913 28.09898 28 ft 111 kts 251°
2026-05-01 10:02 36.40689 28.09131 31 ft 81 kts 250°
2026-05-01 10:02 36.40515 28.08537 27 ft 65 kts 249°
2026-05-01 10:03 36.40394 28.08155 28 ft 35 kts 250°
2026-05-01 10:03 36.40289 28.07964 28 ft 15 kts 220°
2026-05-01 10:03 36.40221 28.07884 28 ft 13 kts 219°
2026-05-01 10:03 36.40146 28.07894 28 ft 12 kts 103°
2026-05-01 10:04 36.40172 28.07993 28 ft 13 kts 70°
2026-05-01 10:04 36.40205 28.08109 28 ft 15 kts 70°
2026-05-01 10:04 36.40243 28.08238 28 ft 17 kts 71°
2026-05-01 10:04 36.40295 28.08415 28 ft 26 kts 70°
2026-05-01 10:05 36.40359 28.08635 28 ft 27 kts 68°
2026-05-01 10:05 36.40398 28.08785 28 ft 10 kts 78°
2026-05-01 10:05 36.40400 28.08863 28 ft 8 kts 102°
2026-05-01 10:05 36.40377 28.08888 28 ft 0 kts 159°
2026-05-01 10:06 36.40352 28.08899 28 ft 9 kts 161°
2026-05-01 10:06 36.40314 28.08917 28 ft 5 kts 159°
2026-05-01 10:07 36.40305 28.08921 28 ft 1 kts 160°